Starlink 34365

operational
NORAD ID: 64671 Int'l Des: 2025-139 Owner: SPXS Country: US Constellation: starlink
LEOCIRCULAR

About Starlink 34365

Description loading...

Live Position

Loading 3D Globe...

Upcoming Passes

Altitude History

Altitude vs Time

uPlot chart will show altitude changes over time

Two-Line Element Set

1 64671U 25139H 26063.48573414 .00033638 00000-0 11418-2 0 9997
2 64671 53.1606 151.4748 0000646 128.4811 231.6247 15.30226989 39549
Epoch: Mar 4, 2026 • Age: 22 hours

Current Status

Altitude 478.9 km
Velocity 7.63 km/s
Sub-Earth Point 43.14°N, 158.75°E
Launch Date Jun 28, 2025
Age 0.6 years
Type internet

Technical Details

Classification Payload
Mass 575.00 kg
Dry Mass 530.00 kg
Total Mass 575.00 kg
Length 0.30 m
Diameter 4.10 m
Span 29.00 m
Shape Box + pan
Manufacturer SPXS
Bus Type Starlink V2MO
Phase Status In Orbit
Owner/State SPXS/US

Large Constellations

Loading constellations...